• In Kazakhstan
  • List of Countries
  • For 7 days
  • Water Temperature
  • Satellite Maps
  • Weather Map
  • News
  • Weather Widgets
  • user-avatar
    Login

    Hourly Weather Colchester

    Today, 12 November, Monday

    Time Temperature Precipitation Wind Pressure Humidity
    00:00 +8°C° 0 mm 5 mps 752 mmHg 85%
    01:00 +9°C° 0.1 mm 5 mps 752 mmHg 86%
    02:00 +9°C° 0.1 mm 5 mps 752 mmHg 86%
    03:00 +9°C° 0.1 mm 5 mps 752 mmHg 87%
    04:00 +9°C° 0.2 mm 5 mps 752 mmHg 88%
    05:00 +9°C° 0.2 mm 5 mps 752 mmHg 89%
    06:00 +9°C° 0 mm 6 mps 753 mmHg 89%
    07:00 +9°C° 0.3 mm 6 mps 753 mmHg 87%
    08:00 +10°C° 0.3 mm 6 mps 753 mmHg 85%
    09:00 +10°C° 0.3 mm 7 mps 754 mmHg 83%
    10:00 +11°C° 0 mm 7 mps 754 mmHg 78%
    11:00 +12°C° 0 mm 7 mps 754 mmHg 73%
    12:00 +14°C° 0 mm 7 mps 754 mmHg 69%
    13:00 +12°C° 0 mm 7 mps 754 mmHg 69%
    14:00 +12°C° 0 mm 7 mps 754 mmHg 69%
    15:00 +12°C° 0 mm 7 mps 754 mmHg 69%
    16:00 +11°C° 0 mm 7 mps 755 mmHg 72%
    17:00 +10°C° 0 mm 7 mps 755 mmHg 75%
    18:00 +10°C° 0 mm 7 mps 755 mmHg 78%
    19:00 +10°C° 0 mm 7 mps 755 mmHg 78%
    20:00 +9°C° 0 mm 7 mps 755 mmHg 79%
    21:00 +9°C° 0 mm 7 mps 756 mmHg 79%
    22:00 +9°C° 0 mm 7 mps 756 mmHg 79%
    23:00 +9°C° 0 mm 8 mps 756 mmHg 79%

    Tomorrow, 13 November, Tuesday

    Time Temperature Precipitation Wind Pressure Humidity
    00:00 +9°C° 0 mm 8 mps 756 mmHg 78%
    01:00 +9°C° 0.1 mm 8 mps 756 mmHg 77%
    02:00 +9°C° 0.1 mm 8 mps 756 mmHg 76%
    03:00 +9°C° 0.1 mm 8 mps 756 mmHg 75%
    04:00 +9°C° 0.1 mm 8 mps 757 mmHg 77%
    05:00 +7°C° 0.1 mm 8 mps 757 mmHg 79%
    06:00 +7°C° 0.1 mm 8 mps 758 mmHg 81%
    07:00 +7°C° 0 mm 8 mps 759 mmHg 79%
    08:00 +7°C° 0 mm 8 mps 760 mmHg 78%
    09:00 +9°C° 0 mm 8 mps 761 mmHg 77%
    10:00 +10°C° 0 mm 8 mps 761 mmHg 73%
    11:00 +10°C° 0 mm 8 mps 762 mmHg 68%
    12:00 +11°C° 0 mm 8 mps 762 mmHg 64%
    13:00 +11°C° 0 mm 7 mps 763 mmHg 65%
    14:00 +11°C° 0 mm 6 mps 763 mmHg 67%
    15:00 +11°C° 0 mm 6 mps 764 mmHg 68%
    16:00 +10°C° 0 mm 5 mps 764 mmHg 72%
    17:00 +9°C° 0 mm 5 mps 764 mmHg 76%
    18:00 +8°C° 0 mm 5 mps 765 mmHg 80%
    19:00 +8°C° 0 mm 5 mps 765 mmHg 82%
    20:00 +8°C° 0 mm 5 mps 765 mmHg 83%
    21:00 +8°C° 0 mm 5 mps 765 mmHg 85%
    22:00 +9°C° 0 mm 5 mps 765 mmHg 85%
    23:00 +9°C° 0 mm 5 mps 765 mmHg 85%

    Day after tomorrow, 14 November, Wednesday

    Time Temperature Precipitation Wind Pressure Humidity
    00:00 +9°C° 0 mm 6 mps 765 mmHg 85%
    01:00 +9°C° 0 mm 6 mps 765 mmHg 85%
    02:00 +9°C° 0 mm 6 mps 765 mmHg 85%
    03:00 +9°C° 0 mm 6 mps 764 mmHg 84%
    04:00 +9°C° 0 mm 6 mps 764 mmHg 84%
    05:00 +9°C° 0 mm 6 mps 764 mmHg 84%
    06:00 +9°C° 0 mm 6 mps 764 mmHg 84%
    07:00 +9°C° 0 mm 6 mps 764 mmHg 83%
    08:00 +9°C° 0 mm 6 mps 764 mmHg 81%
    09:00 +9°C° 0 mm 7 mps 765 mmHg 79%
    10:00 +10°C° 0 mm 6 mps 764 mmHg 75%
    11:00 +11°C° 0 mm 6 mps 764 mmHg 71%
    12:00 +13°C° 0 mm 6 mps 764 mmHg 66%
    13:00 +13°C° 0 mm 6 mps 764 mmHg 68%
    14:00 +13°C° 0 mm 5 mps 763 mmHg 69%
    15:00 +12°C° 0 mm 5 mps 763 mmHg 70%
    16:00 +12°C° 0 mm 5 mps 763 mmHg 74%
    17:00 +10°C° 0 mm 5 mps 763 mmHg 78%
    18:00 +9°C° 0 mm 5 mps 763 mmHg 82%
    19:00 +9°C° 0 mm 5 mps 763 mmHg 85%
    20:00 +9°C° 0 mm 5 mps 763 mmHg 87%
    21:00 +9°C° 0 mm 5 mps 763 mmHg 90%
    22:00 +9°C° 0 mm 5 mps 763 mmHg 91%
    23:00 +9°C° 0 mm 5 mps 763 mmHg 92%

    15 November, Thursday

    Time Temperature Precipitation Wind Pressure Humidity
    00:00 +10°C° 0 mm 4 mps 763 mmHg 93%
    01:00 +10°C° 0 mm 4 mps 762 mmHg 94%
    02:00 +10°C° 0 mm 4 mps 762 mmHg 95%
    03:00 +10°C° 0 mm 4 mps 762 mmHg 95%
    04:00 +10°C° 0 mm 4 mps 762 mmHg 95%
    05:00 +10°C° 0 mm 4 mps 762 mmHg 95%
    06:00 +10°C° 0 mm 4 mps 762 mmHg 95%
    07:00 +11°C° 0 mm 4 mps 762 mmHg 94%
    08:00 +10°C° 0 mm 5 mps 762 mmHg 93%
    09:00 +12°C° 0 mm 5 mps 762 mmHg 92%
    10:00 +13°C° 0 mm 5 mps 762 mmHg 87%
    11:00 +14°C° 0 mm 5 mps 762 mmHg 83%
    12:00 +15°C° 0 mm 5 mps 762 mmHg 78%
    13:00 +15°C° 0 mm 5 mps 762 mmHg 79%
    14:00 +14°C° 0 mm 4 mps 762 mmHg 80%
    15:00 +14°C° 0 mm 4 mps 762 mmHg 82%
    16:00 +13°C° 0 mm 4 mps 762 mmHg 85%
    17:00 +12°C° 0 mm 4 mps 762 mmHg 89%
    18:00 +11°C° 0 mm 4 mps 762 mmHg 92%
    19:00 +11°C° 0 mm 4 mps 762 mmHg 93%
    20:00 +11°C° 0 mm 4 mps 763 mmHg 93%
    21:00 +11°C° 0 mm 4 mps 763 mmHg 94%
    22:00 +11°C° 0 mm 3 mps 763 mmHg 94%
    23:00 +11°C° 0 mm 3 mps 763 mmHg 94%

    16 November, Friday

    Time Temperature Precipitation Wind Pressure Humidity
    00:00 +11°C° 0 mm 3 mps 764 mmHg 95%
    01:00 +11°C° 0 mm 3 mps 764 mmHg 95%
    02:00 +12°C° 0 mm 2 mps 764 mmHg 95%
    03:00 +10°C° 0 mm 2 mps 764 mmHg 95%
    04:00 +10°C° 0 mm 2 mps 764 mmHg 95%
    05:00 +10°C° 0 mm 2 mps 765 mmHg 95%
    06:00 +10°C° 0 mm 2 mps 765 mmHg 96%
    07:00 +12°C° 0 mm 2 mps 765 mmHg 95%
    08:00 +12°C° 0 mm 2 mps 766 mmHg 95%
    09:00 +13°C° 0 mm 2 mps 766 mmHg 95%
    10:00 +14°C° 0 mm 2 mps 766 mmHg 90%
    11:00 +15°C° 0 mm 2 mps 766 mmHg 86%
    12:00 +16°C° 0 mm 3 mps 766 mmHg 81%
    13:00 +16°C° 0 mm 3 mps 766 mmHg 82%
    14:00 +14°C° 0 mm 3 mps 766 mmHg 84%
    15:00 +14°C° 0 mm 3 mps 766 mmHg 85%
    16:00 +13°C° 0 mm 3 mps 766 mmHg 88%
    17:00 +12°C° 0 mm 3 mps 766 mmHg 91%
    18:00 +11°C° 0 mm 3 mps 766 mmHg 94%
    19:00 +11°C° 0 mm 3 mps 767 mmHg 94%
    20:00 +11°C° 0 mm 3 mps 767 mmHg 94%
    21:00 +10°C° 0 mm 3 mps 767 mmHg 94%
    22:00 +10°C° 0 mm 4 mps 767 mmHg 93%
    23:00 +10°C° 0 mm 4 mps 767 mmHg 92%

    17 November, Saturday

    Time Temperature Precipitation Wind Pressure Humidity
    00:00 +10°C° 0 mm 4 mps 767 mmHg 91%
    01:00 +10°C° 0 mm 4 mps 767 mmHg 90%
    02:00 +8°C° 0 mm 4 mps 767 mmHg 88%
    03:00 +8°C° 0 mm 4 mps 767 mmHg 86%
    04:00 +8°C° 0 mm 4 mps 767 mmHg 84%
    05:00 +8°C° 0 mm 4 mps 767 mmHg 83%
    06:00 +7°C° 0 mm 4 mps 767 mmHg 81%
    07:00 +8°C° 0 mm 5 mps 767 mmHg 78%
    08:00 +8°C° 0 mm 5 mps 767 mmHg 75%
    09:00 +9°C° 0 mm 5 mps 768 mmHg 72%
    10:00 +9°C° 0 mm 5 mps 768 mmHg 69%
    11:00 +10°C° 0 mm 6 mps 768 mmHg 65%
    12:00 +11°C° 0 mm 6 mps 768 mmHg 62%
    13:00 +11°C° 0 mm 6 mps 767 mmHg 64%
    14:00 +10°C° 0 mm 6 mps 767 mmHg 65%
    15:00 +10°C° 0 mm 6 mps 767 mmHg 67%
    16:00 +9°C° 0 mm 6 mps 767 mmHg 69%
    17:00 +9°C° 0 mm 7 mps 767 mmHg 71%
    18:00 +8°C° 0 mm 7 mps 767 mmHg 73%
    19:00 +8°C° 0 mm 7 mps 768 mmHg 71%
    20:00 +8°C° 0 mm 7 mps 768 mmHg 70%
    21:00 +8°C° 0 mm 7 mps 768 mmHg 69%
    22:00 +8°C° 0 mm 7 mps 768 mmHg 69%
    23:00 +8°C° 0 mm 6 mps 768 mmHg 69%
    Show more